Weather in Aguadilla

Puerto Rico     18˚28′18″N   67˚08′18″W
temp.,
°C
wind,
m/s
gust,
m/s
humid.,
%
clouds,
%
prec.,
mm/h
press.,
hPa
HPBL,
m
17 january, sun
sun1723:00+25˚ese67817 0.0 1016439
02:00+24˚e567913 0.0 1015469
05:00+24˚e797916 0.0 1015559
08:00+24˚e798241 0.0 1016641
11:00+26˚e566994 0.0 1017820
14:00+26˚ne567285 0.0 1015635
17:00+26˚ene7879100 0.2 1014758
20:00+25˚e91083100 0.3 1016705
18 january, mon
mon1823:00+25˚e81182100 0.1 1016773
02:00+25˚ene898599 0.3 1015646
05:00+25˚e688094 0.2 1015452
08:00+25˚e577897 0.2 1017497
11:00+26˚ese466670 0.0 1019763
14:00+26˚nne246747 0.0 1017542
17:00+26˚ene677842 0.0 1016607
20:00+26˚e9118232 0.0 1017657
19 january, tue
tue1923:00+25˚e8118118 0.0 1018713
02:00+25˚e8108345 0.0 1017665
05:00+25˚e8108269 0.0 1016699
08:00+25˚ene7108285 0.1 1019742
11:00+26˚ene897897 0.0 1019962
14:00+26˚ne10117998 0.1 1018852
17:00+26˚ne101180100 0.1 1016822
20:00+26˚ene91181100 0.1 1018880
20 january, wed
wed2023:00+26˚ene9117978 0.1 1018963
02:00+25˚ene9118389 0.2 1017906
05:00+25˚ene91179100 0.1 1015989
08:00+25˚ene81079100 0.2 1017958
11:00+26˚ene897599 0.0 10181024
14:00+26˚ene9107372 0.0 1016835
17:00+26˚ene787534 0.0 1015719
20:00+25˚ene8108122 0.0 1016804
21 january, thu
thu2123:00+25˚ne810833 0.1 1017793
02:00+25˚ene89832 0.3 1016703
05:00+25˚ene688116 0.3 1015692
08:00+25˚e788110 0.3 1016670
11:00+26˚ene67730 0.0 1017874
14:00+26˚ne89760 0.0 1015734
17:00+25˚ne89780 0.0 1014799
20:00+25˚ene89790 0.0 1016842